RH
27 26 25 24 23 22 21 19 17 14 12 10 10 10 10 10 10 9 9 9 9 9 10 9 9 9 8 9 8 9 9 9 10 10 11 11 12 11 9 9 8 10 13 14 13 11 12 9 12 14 15 19 14 21 26 37 83 105 96 102 101 98 102 101 102 99 101 102 98 105 102 81 53 39 37 28 33 33 23 27 26 25 27 23 17 16 20 22
25 25 24 24 24 23 23 22 22 20 18 15 13 11 10 10 10 10 9 9 9 9 9 9 9 9 8 8 8 9 9 9 9 9 11 11 13 12 10 9 8 9 12 14 14 12 12 10 11 12 14 18 16 20 23 30 63 93 99 101 100 100 101 99 102 100 101 102 99 103 101 85 61 50 45 36 45 42 23 25 29 26 27 25 19 14 18 21
20 20 20 20 19 19 20 20 20 20 20 20 18 16 13 10 9 9 10 9 9 9 9 9 9 9 9 8 8 8 9 9 9 9 10 11 13 13 11 9 9 8 11 14 14 14 12 11 10 11 14 14 16 20 37 61 71 82 99 101 99 101 100 100 102 101 102 101 99 100 102 91 67 63 60 44 55 53 26 22 30 30 27 25 22 15 15 19
18 18 17 17 17 17 16 16 16 17 17 18 19 18 17 14 11 9 9 9 9 9 8 9 9 9 9 9 9 8 8 8 9 9 9 11 12 14 13 10 9 8 10 13 15 15 12 12 10 10 13 13 15 14 41 86 88 87 102 100 100 101 98 100 100 101 102 99 101 100 98 92 80 87 81 58 65 63 34 21 28 34 30 25 23 17 14 16
17 17 17 17 18 18 17 16 15 15 15 15 16 16 17 17 16 12 10 9 9 9 9 9 9 9 9 9 9 8 8 8 9 9 9 11 12 14 14 10 9 8 9 12 15 16 14 13 9 10 11 11 14 12 38 73 80 93 105 98 100 101 98 101 101 101 100 99 103 100 97 97 97 97 74 66 84 72 44 23 24 36 33 28 24 19 16 14
20 20 20 19 20 21 21 20 18 17 15 14 14 14 15 15 17 16 13 11 8 9 9 9 8 9 9 9 9 8 8 9 8 8 9 10 11 13 14 12 10 8 9 10 14 16 16 14 10 10 10 11 11 13 33 57 77 99 103 99 102 100 99 101 98 99 100 102 103 100 95 85 91 91 58 72 101 77 54 30 19 34 35 32 26 21 18 14
22 22 22 21 21 22 22 22 21 20 18 16 15 13 13 13 14 16 16 15 11 9 9 9 8 8 9 9 9 9 9 9 7 8 9 9 11 12 13 13 10 8 9 9 12 15 16 15 12 10 9 11 10 12 26 50 83 103 99 100 102 99 101 100 95 97 101 102 101 101 96 77 85 91 56 73 103 77 63 41 20 30 35 35 31 24 19 14
22 21 21 21 21 21 21 21 20 20 20 18 17 15 14 13 13 13 14 16 15 12 8 8 9 8 9 9 9 9 9 9 7 8 9 9 10 11 13 13 12 9 8 9 10 14 17 16 13 11 9 9 10 16 33 62 94 104 100 100 100 100 101 101 99 99 100 100 101 101 102 92 97 97 59 68 93 73 66 51 27 28 33 37 34 29 23 15
25 23 21 21 20 20 20 20 19 19 19 19 17 16 15 14 13 12 12 14 15 15 11 9 8 9 9 8 9 9 10 9 7 8 8 9 10 11 12 13 14 11 9 8 9 12 16 17 14 11 10 11 11 13 34 73 98 102 102 100 99 102 100 100 101 100 101 100 100 99 103 102 103 99 68 67 78 62 62 56 36 32 34 38 36 32 28 19
33 29 26 24 22 21 20 19 19 19 19 18 17 16 16 15 14 13 12 12 13 15 15 12 8 8 9 8 9 9 10 9 7 8 8 8 9 10 11 12 14 13 10 8 9 11 15 16 15 14 13 11 11 9 23 62 90 98 104 102 99 101 97 99 101 101 102 100 102 102 103 104 103 101 86 80 70 54 67 63 44 40 38 39 39 34 31 26
35 32 30 28 25 23 21 20 19 18 18 17 17 16 16 15 14 14 13 12 12 13 15 14 12 8 8 9 9 9 10 9 8 8 8 8 9 10 10 11 14 13 11 9 8 10 13 16 16 17 15 10 11 10 14 42 71 83 94 101 102 100 98 100 101 102 100 99 102 102 103 102 102 103 99 96 76 62 80 72 51 50 44 41 41 36 32 30
31 30 30 29 28 26 24 22 20 20 18 17 17 16 16 15 14 14 14 13 12 12 13 14 14 11 9 8 9 10 9 9 8 8 8 8 8 9 10 11 13 13 12 10 8 10 11 16 19 18 16 12 10 11 16 33 53 71 85 92 98 102 102 100 101 101 98 99 101 100 102 102 100 101 102 103 92 84 91 80 64 62 53 44 42 38 34 31
27 26 26 26 27 26 25 23 22 21 19 18 17 16 16 15 15 14 14 14 13 12 12 13 14 14 11 8 9 10 9 9 9 9 9 8 7 9 10 10 12 13 13 11 9 9 10 15 19 19 18 15 12 12 21 32 47 78 98 96 96 102 103 100 101 102 100 102 102 100 102 102 100 100 100 102 103 98 95 90 82 73 61 50 43 39 35 31
22 21 21 22 22 23 23 22 22 21 20 18 17 16 16 16 16 15 14 14 14 13 12 12 13 14 14 10 9 9 9 8 8 9 9 8 7 8 9 10 11 12 13 12 10 9 10 14 18 21 21 17 14 12 17 26 41 72 94 98 100 99 101 105 105 102 102 103 102 100 100 100 100 102 102 102 102 94 87 88 84 77 69 56 46 39 34 30
19 18 18 18 18 19 19 19 20 19 19 19 18 17 16 16 16 16 16 14 14 14 13 12 12 13 15 14 11 9 9 9 8 9 9 9 8 8 9 10 11 12 13 13 11 9 9 13 18 23 23 18 14 11 12 18 32 54 68 86 101 96 92 100 104 102 100 101 100 100 100 100 101 102 102 103 104 96 88 88 84 80 74 60 50 41 35 30
18 18 17 16 16 16 16 16 17 17 18 18 18 17 16 16 16 17 17 15 15 15 14 13 12 13 14 15 14 10 8 9 8 9 9 10 8 7 8 10 11 11 12 13 12 10 9 12 17 22 21 19 15 12 13 15 34 61 67 81 102 98 87 90 100 104 100 100 99 100 101 100 100 101 100 102 104 102 100 99 93 87 78 64 53 43 39 37
20 19 17 16 16 15 15 15 15 16 16 17 18 18 17 16 16 16 17 17 16 15 15 14 13 13 13 15 16 13 9 8 9 9 9 10 9 8 8 9 11 11 12 13 13 11 10 10 15 20 19 20 16 12 14 16 37 67 74 86 104 100 91 90 99 102 99 100 99 99 101 99 100 101 100 101 102 100 101 104 101 98 87 70 57 46 45 45
20 18 17 15 15 14 14 14 14 15 15 16 17 18 18 17 16 16 17 18 17 16 16 16 15 13 13 14 15 14 10 8 8 8 9 9 9 9 8 8 10 11 12 12 13 12 11 10 12 17 19 20 17 14 17 19 34 53 66 88 102 101 97 97 103 103 100 102 100 102 102 97 101 101 98 100 100 100 101 104 104 102 93 77 65 53 49 48
19 17 16 15 14 14 14 14 14 15 15 16 16 17 18 18 16 16 17 17 18 17 17 17 16 14 12 13 14 14 13 10 9 8 9 9 9 10 8 9 9 10 12 11 13 13 12 11 10 16 22 22 21 18 19 21 27 37 55 79 94 102 102 99 104 102 100 103 100 102 101 97 101 102 100 100 100 100 101 104 104 103 99 89 77 61 52 49
18 16 16 15 14 14 13 13 13 13 15 15 16 17 18 18 18 18 17 17 17 17 17 17 16 14 13 13 13 13 14 12 9 8 10 9 9 10 9 8 8 10 12 11 12 13 13 12 10 15 23 26 25 22 19 21 23 29 44 66 83 96 101 102 102 97 98 102 101 103 102 98 99 101 104 103 101 99 100 103 98 97 101 99 91 73 57 50
18 17 16 15 14 13 12 12 12 12 14 14 16 17 17 19 18 19 18 17 17 17 17 17 16 15 15 14 13 13 14 14 11 8 9 10 9 10 10 9 8 9 11 12 12 12 13 13 10 13 21 26 26 22 20 21 27 34 40 54 70 81 93 103 102 98 101 99 101 106 103 100 97 100 106 103 101 99 102 102 90 90 101 103 100 86 67 53
17 16 15 13 12 12 12 12 12 12 13 14 16 17 17 18 18 19 18 17 17 17 17 17 16 16 16 14 13 14 15 15 13 10 9 10 10 10 9 9 9 9 10 11 11 12 13 14 12 11 16 24 25 22 20 20 26 36 40 44 56 70 88 102 102 102 104 100 102 104 103 104 101 101 103 100 101 101 103 101 89 93 103 102 103 95 75 55
16 15 13 13 13 13 13 13 13 13 14 15 16 17 18 18 19 19 18 18 18 17 17 16 16 16 16 15 14 15 16 15 15 12 10 10 10 10 10 10 10 8 9 11 12 13 13 15 14 11 13 21 26 23 20 21 23 33 44 47 53 68 84 95 98 99 101 102 104 102 104 104 96 95 99 100 101 99 101 99 94 96 96 97 104 98 78 56
14 14 13 14 15 15 16 16 15 15 16 17 17 18 18 18 19 19 19 19 18 17 17 16 16 16 16 15 14 15 15 15 15 14 11 10 10 11 10 10 10 9 9 10 12 13 14 15 14 12 11 16 26 25 21 22 22 34 53 56 57 69 77 79 84 88 94 102 104 101 104 104 96 93 99 104 101 98 99 99 101 93 80 90 104 99 88 70
14 15 15 16 17 18 19 18 19 18 18 19 19 19 18 18 19 19 20 19 18 18 17 16 15 15 16 15 15 15 15 14 14 14 13 10 10 11 11 11 11 10 10 10 12 14 14 15 15 14 11 13 21 24 23 25 24 34 51 56 59 67 70 72 77 78 82 96 100 93 93 96 92 87 92 99 97 97 100 101 103 84 65 86 104 100 99 86
15 16 17 19 20 21 21 22 22 22 21 22 21 21 20 20 20 20 20 19 19 18 17 17 15 15 17 17 16 17 16 15 14 14 14 12 10 10 11 11 11 10 10 9 11 14 15 14 15 15 13 12 16 20 25 28 29 34 42 51 62 65 64 74 81 73 69 80 87 84 82 78 75 80 92 96 94 99 104 104 99 76 69 93 103 99 102 94
18 18 19 21 22 24 24 24 26 26 26 26 25 24 24 23 22 21 20 19 19 19 18 18 16 17 17 16 18 18 16 14 15 15 14 13 12 10 11 12 12 11 10 9 11 14 16 15 15 16 15 13 12 17 26 29 30 30 35 52 66 66 64 72 78 73 66 68 73 80 84 72 63 77 95 98 99 104 99 92 84 74 84 101 100 98 101 98
19 21 22 23 25 26 27 27 28 29 29 29 28 27 26 25 24 23 21 21 21 21 20 18 18 18 16 18 22 20 16 16 17 17 14 14 14 11 11 12 13 12 11 10 11 15 18 16 15 16 17 16 12 14 21 28 31 28 34 54 66 67 66 66 69 67 60 58 62 68 73 66 55 61 77 86 99 106 95 86 82 80 93 103 99 100 101 101
22 23 25 27 28 30 30 30 30 31 31 30 29 28 27 26 25 24 23 23 23 23 21 19 18 17 16 21 23 19 18 19 19 17 14 14 14 13 11 11 13 14 13 12 12 16 20 18 17 16 16 17 13 11 15 26 35 32 35 49 58 64 65 62 64 61 51 49 53 54 53 58 59 53 55 70 87 96 91 91 93 90 97 102 100 102 100 101
24 25 28 31 32 33 33 34 34 34 33 32 32 31 30 29 27 27 26 24 26 26 22 20 20 20 19 22 21 18 20 19 17 17 16 14 14 14 12 11 13 14 15 15 15 19 22 19 18 16 16 16 14 12 13 22 34 34 33 39 46 54 59 56 54 56 56 48 43 45 45 56 69 59 49 63 77 74 72 88 99 97 100 102 100 103 100 100
26 28 32 34 36 36 36 39 41 39 38 38 39 39 38 35 33 32 30 29 32 30 25 24 25 25 24 24 23 23 21 17 17 21 20 16 15 16 15 14 14 14 15 17 18 22 23 20 18 16 14 15 16 14 12 16 28 35 35 35 37 43 52 51 41 46 62 56 41 43 47 54 68 63 52 56 59 53 66 93 104 101 101 99 97 99 101 102
29 31 35 37 40 41 43 48 49 47 48 50 49 49 48 46 45 43 40 39 39 36 31 29 29 29 28 28 29 27 21 17 21 26 23 19 18 18 20 19 16 14 16 17 18 20 21 20 20 17 15 15 17 17 13 12 20 29 36 38 35 34 43 48 41 43 58 60 48 44 46 50 56 58 60 63 50 42 72 100 100 101 103 97 93 96 102 105
31 33 38 41 45 51 56 58 58 59 61 61 59 59 57 55 53 50 47 45 43 40 36 32 31 31 32 31 29 26 21 19 25 29 25 21 20 20 21 23 20 16 15 16 18 20 21 20 19 20 17 15 16 17 15 13 14 21 30 38 36 31 36 43 44 49 58 63 55 48 47 45 43 47 60 77 66 51 80 105 98 99 104 94 91 98 104 104
33 36 41 46 57 70 71 68 70 71 68 65 63 61 56 53 49 45 43 40 38 37 36 34 33 32 33 32 28 24 22 23 30 33 28 22 22 22 20 22 24 20 15 15 17 20 21 18 19 23 19 16 18 18 17 15 14 15 22 33 38 37 40 42 42 48 59 66 61 57 56 47 41 42 46 65 71 60 81 107 100 96 101 92 85 95 103 101
36 40 49 63 82 91 81 74 77 74 66 62 59 54 48 43 39 36 34 32 31 31 31 32 32 30 32 32 28 25 23 25 31 35 30 25 24 23 22 23 26 22 17 16 17 19 20 16 18 23 20 20 23 19 17 18 16 14 15 25 35 41 46 47 44 45 56 66 65 60 60 49 41 42 38 47 60 57 73 101 98 88 98 99 89 97 103 99
38 47 67 87 98 93 79 75 76 69 62 58 52 46 40 35 31 28 26 25 24 24 24 25 26 26 28 28 27 27 25 25 30 34 31 27 26 25 23 24 26 23 18 16 16 19 20 17 18 20 19 22 24 19 18 21 21 17 13 16 26 36 46 50 47 44 48 60 61 55 56 53 46 46 44 47 54 46 55 85 85 73 93 104 95 101 104 100
43 60 84 96 92 83 77 76 71 63 59 54 47 40 34 30 27 24 21 20 20 20 20 20 21 21 22 23 25 26 27 27 33 38 34 28 27 26 23 20 20 19 16 15 15 17 20 19 18 18 19 22 22 18 19 20 21 21 16 14 18 27 38 45 44 40 42 48 49 45 47 51 54 54 51 59 68 49 39 58 56 51 86 105 94 103 105 100
52 73 93 97 89 82 80 76 68 63 59 51 43 37 32 28 24 22 20 19 18 17 18 18 18 18 18 20 22 23 26 28 34 40 38 32 28 25 21 17 15 15 14 14 15 16 20 20 18 17 20 22 20 19 20 19 21 23 17 13 14 18 27 37 40 38 38 37 36 40 42 42 50 57 52 57 71 56 34 41 38 37 80 105 96 99 100 98
63 86 101 100 90 83 79 74 68 64 58 49 42 36 32 28 24 22 19 17 16 16 16 16 15 16 17 18 19 20 23 26 32 36 36 34 30 25 21 18 17 17 18 18 16 16 18 18 17 19 22 22 21 22 24 22 22 23 22 23 25 20 18 27 35 38 41 36 30 38 46 44 45 56 60 54 56 54 40 37 35 32 62 94 98 95 94 97
70 95 105 101 92 84 77 71 66 63 56 46 39 34 31 28 25 22 18 15 15 14 14 14 13 14 14 16 19 20 20 22 28 33 32 30 27 25 22 19 19 21 24 26 22 18 17 16 15 19 23 23 24 28 28 23 22 25 26 35 44 37 23 20 25 32 40 41 35 36 46 49 45 50 65 66 61 65 60 49 40 33 38 62 82 88 91 96
74 96 102 100 96 87 76 68 63 60 52 42 36 33 31 29 25 22 17 15 15 14 13 13 13 14 14 14 16 18 19 20 23 27 29 27 24 24 24 21 21 22 25 28 27 21 18 16 14 16 22 26 30 35 33 25 25 27 24 29 42 42 29 22 21 22 31 37 36 37 40 46 50 47 60 81 79 71 69 62 49 38 31 38 57 75 87 91
80 96 99 97 95 85 74 67 61 56 49 41 36 35 33 31 27 21 16 16 15 14 14 13 13 15 14 14 14 15 18 19 19 22 24 25 23 23 25 25 25 24 24 27 27 22 18 16 15 16 20 25 31 38 37 26 22 23 21 21 29 34 30 24 19 16 23 29 30 35 37 39 51 53 62 92 94 67 58 63 55 42 35 32 38 52 66 71
81 93 97 95 88 78 71 67 60 55 49 42 38 37 36 34 28 21 17 18 17 15 15 15 15 16 15 15 14 13 15 17 18 19 20 22 22 21 24 27 28 28 28 29 28 24 19 16 15 16 19 24 29 35 35 27 24 28 30 25 25 31 33 29 21 13 16 23 23 30 36 36 47 57 63 85 91 63 50 58 57 47 39 34 33 36 40 43
79 88 92 90 82 75 71 66 61 57 51 44 40 38 37 36 31 23 20 19 18 17 17 17 17 17 16 15 14 13 15 16 17 19 19 21 22 22 25 27 28 29 30 32 30 24 20 17 15 17 20 23 27 32 34 30 32 38 39 34 29 29 31 33 31 19 11 16 19 23 33 36 42 51 58 71 75 58 48 51 51 50 44 37 34 33 33 32
79 86 87 84 81 76 72 68 63 61 56 47 41 39 39 40 35 26 22 22 20 19 19 18 17 17 17 16 15 15 16 16 16 17 19 21 21 22 26 28 29 30 30 31 29 24 20 18 17 17 19 23 25 29 31 32 36 41 43 42 37 30 29 36 42 31 13 11 16 17 24 32 36 43 53 62 58 45 44 49 45 43 42 38 35 32 32 35
80 88 86 82 82 77 73 71 67 65 61 50 44 42 40 41 39 30 24 24 22 20 21 21 19 18 18 18 17 16 16 17 17 16 18 21 22 22 25 28 30 32 33 32 27 23 20 20 20 18 20 25 26 26 28 29 33 39 43 45 40 29 25 30 39 36 20 12 13 14 17 24 29 35 43 49 45 37 41 50 45 36 33 32 34 32 31 36
80 87 87 84 83 77 73 74 72 70 66 55 49 48 44 42 43 36 28 26 25 23 23 23 21 20 20 19 18 18 17 16 17 16 16 19 22 23 24 26 30 32 34 32 27 23 21 22 22 20 21 28 30 28 27 28 30 35 40 42 38 30 28 30 34 33 23 15 14 13 13 17 22 28 33 37 40 40 41 48 49 43 35 29 31 33 32 34
82 87 87 86 85 77 72 75 75 74 69 59 53 55 51 45 44 40 32 28 27 25 24 24 24 23 22 22 22 20 19 18 17 17 16 17 19 22 24 26 29 31 32 31 28 25 23 24 23 21 22 28 31 29 28 28 29 32 38 41 39 36 37 39 38 31 22 19 20 19 16 15 16 19 25 29 33 38 41 44 48 49 44 35 30 33 35 34
87 92 89 86 87 78 71 75 78 76 72 62 57 60 58 51 46 45 38 31 29 28 26 26 26 25 24 24 24 21 21 23 23 21 19 17 18 20 23 26 28 30 31 30 29 28 25 24 23 22 23 27 30 29 27 26 26 29 35 37 37 39 41 44 42 33 23 20 23 26 24 20 17 16 18 21 24 30 34 38 45 51 50 43 33 32 36 37
86 96 91 86 89 82 72 76 81 79 73 65 59 61 63 57 50 48 43 34 31 30 29 27 27 27 28 28 28 24 23 26 29 28 23 20 19 19 21 25 27 29 32 31 30 29 26 23 23 24 24 26 30 32 29 26 25 27 31 32 34 39 43 47 44 33 25 22 21 24 26 24 19 16 17 19 20 23 24 29 39 47 50 50 43 35 33 35
83 95 92 85 90 85 74 76 84 83 75 68 62 60 64 63 55 51 48 39 33 32 31 30 28 28 30 31 31 27 25 28 32 31 25 22 21 20 20 24 26 28 31 31 31 30 27 24 24 26 26 26 31 35 34 32 27 25 27 29 32 37 41 45 45 36 32 29 22 22 27 28 24 21 20 21 23 25 23 23 30 34 38 47 51 45 37 35
82 92 89 84 88 87 77 76 85 86 77 72 68 62 65 67 59 54 52 46 37 33 33 32 29 29 30 31 31 29 28 29 29 26 24 23 23 23 23 24 25 26 29 30 31 31 29 25 24 26 28 28 31 33 33 33 30 26 26 27 30 34 37 41 40 36 36 36 28 23 26 31 33 33 31 27 23 25 23 21 23 26 28 34 39 40 37 35
Wind_Speed
15 16 16 17 18 19 20 22 23 25 27 28 30 31 31 32 33 36 39 41 42 44 44 44 45 45 46 45 44 43 43 43 43 43 42 42 42 42 43 45 45 45 43 42 43 43 43 44 44 43 41 39 38 34 30 29 22 21 20 13 13 13 12 13 12 13 13 11 11 11 8 6 3 5 7 10 11 13 16 18 20 23 27 29 26 21 20 22
17 17 18 18 19 20 20 21 22 23 24 26 28 31 32 33 33 34 37 40 42 44 45 46 46 47 47 47 46 46 45 45 44 44 44 44 43 43 44 45 46 47 46 44 43 43 44 45 46 45 44 41 39 35 32 30 25 21 18 14 13 11 11 12 13 15 13 12 13 13 10 6 4 4 6 8 10 11 14 18 19 23 25 27 28 23 20 21
20 21 21 22 22 22 22 22 23 23 24 25 26 28 31 33 34 35 36 38 41 44 46 47 47 48 48 49 48 48 47 46 45 45 46 45 44 44 45 46 47 48 47 46 45 45 46 47 48 47 45 43 41 38 34 29 26 22 14 13 14 11 12 13 15 16 14 14 12 11 11 7 4 4 4 6 8 8 12 17 18 22 24 25 28 26 21 20
24 25 25 25 25 25 25 25 25 25 25 25 26 27 29 31 33 35 36 37 39 43 46 47 48 49 49 50 50 50 49 48 47 47 47 46 45 45 46 47 48 49 49 48 47 46 47 48 49 49 47 46 42 40 37 28 26 24 15 13 15 14 14 14 17 17 17 17 13 12 11 9 7 8 5 3 5 6 10 15 17 20 23 24 26 27 24 20
28 28 28 28 28 28 29 28 28 27 27 27 27 28 28 29 31 33 36 38 38 40 44 48 49 50 50 51 51 52 51 50 50 49 48 48 47 47 47 48 49 51 52 51 50 48 48 48 49 50 49 47 44 42 40 32 30 27 19 15 16 16 14 15 19 17 18 17 14 15 12 11 10 9 6 1 4 4 8 13 16 18 21 22 23 26 26 23
31 31 32 31 31 30 30 31 31 30 30 30 29 28 28 29 30 32 34 37 39 40 42 46 49 51 51 52 52 53 53 53 53 51 50 49 49 49 49 50 50 52 54 54 52 50 49 49 49 50 50 49 46 45 42 37 33 29 23 18 17 17 12 16 21 18 19 17 16 17 13 13 12 9 7 4 5 4 5 10 13 16 18 20 21 24 26 26
32 33 34 34 34 34 33 33 33 33 33 32 32 31 30 29 30 32 33 35 38 41 42 44 48 51 52 53 53 54 54 55 54 52 52 51 50 50 50 51 51 53 55 56 54 52 51 50 50 51 51 50 48 48 45 40 36 30 26 22 19 18 12 15 22 21 21 20 19 17 14 13 11 10 8 6 6 3 2 7 11 13 15 17 19 21 24 26
33 34 36 37 37 37 37 36 35 35 35 35 35 34 33 32 31 31 33 35 37 40 43 44 46 50 53 54 54 55 55 57 58 55 54 53 52 52 52 52 52 53 55 57 56 54 52 51 51 51 52 52 51 50 48 42 37 34 30 24 21 22 17 16 22 24 24 22 21 17 14 12 10 10 8 7 6 3 1 3 8 10 13 15 17 19 22 25
34 35 36 37 39 40 40 40 39 38 37 37 37 36 35 35 33 33 33 35 36 38 42 44 45 47 52 55 56 55 56 60 61 56 55 55 54 54 54 53 52 53 55 57 58 56 54 53 52 52 53 54 54 54 51 44 39 38 33 27 25 27 24 22 23 23 21 20 20 17 14 12 11 11 10 9 7 5 4 0 5 8 10 12 14 17 19 22
38 38 38 38 38 39 41 42 42 41 41 40 40 39 38 37 36 35 34 35 36 38 40 43 46 47 50 54 57 56 57 63 62 58 58 58 56 56 56 55 54 54 55 58 60 59 57 55 53 52 54 56 56 56 54 48 43 42 37 31 31 30 26 26 26 21 19 19 18 16 15 13 11 11 12 11 9 7 5 2 2 5 7 9 12 14 16 20
41 42 43 42 41 40 40 42 43 43 44 43 42 41 40 40 39 38 37 37 37 38 40 42 46 48 49 52 56 58 60 64 64 60 61 60 58 58 58 57 56 56 56 59 61 61 59 56 54 53 54 57 58 57 56 52 47 44 39 35 34 33 28 29 28 23 22 21 19 17 15 14 13 12 13 13 10 8 7 4 1 3 4 6 9 11 14 17
43 45 46 46 46 45 43 43 43 43 45 45 45 43 42 41 41 41 40 39 38 38 40 42 44 47 51 52 54 59 63 65 65 61 62 62 60 60 60 59 59 58 57 59 62 63 61 57 56 54 55 58 59 59 58 54 49 42 37 36 37 37 34 30 27 24 23 22 20 19 17 16 15 13 14 14 11 8 7 5 1 0 1 4 6 9 12 15
48 48 49 49 49 49 49 48 47 46 46 47 47 46 44 43 42 42 42 41 41 40 40 42 44 47 51 52 54 59 64 67 66 63 64 65 62 62 62 61 60 60 59 60 62 64 63 60 58 57 57 60 61 62 60 57 52 43 35 36 40 42 40 34 30 27 24 20 18 18 19 18 17 17 16 14 11 9 8 6 3 2 2 1 3 6 9 12
53 53 53 52 52 53 54 54 53 52 50 48 48 47 46 44 43 43 44 44 43 42 41 42 44 46 49 53 57 60 63 68 67 64 65 66 64 64 63 62 62 62 61 60 62 64 65 63 61 60 60 63 64 65 64 60 56 50 43 40 42 44 44 41 35 31 25 20 16 17 21 20 18 19 17 15 12 10 10 8 6 5 4 3 1 3 6 10
58 58 57 57 57 57 58 59 58 58 55 52 50 49 48 47 45 44 44 45 45 44 43 43 44 46 49 52 58 60 62 67 68 65 67 68 67 66 65 64 63 63 63 61 62 65 67 66 64 64 64 65 65 67 66 63 59 56 52 48 44 43 45 44 38 34 27 23 21 20 21 21 19 19 18 17 14 12 13 12 9 8 7 6 3 1 3 7
62 62 62 61 61 61 61 61 61 61 59 57 54 52 51 50 48 46 45 45 46 46 45 45 45 46 49 52 58 62 64 67 68 67 69 70 69 68 67 66 65 64 64 63 62 65 69 70 68 68 68 66 66 68 67 65 61 57 56 52 46 45 47 45 41 37 30 25 26 25 23 22 20 20 20 19 16 13 14 14 11 11 10 9 6 3 1 4
67 66 66 65 65 64 63 62 62 61 61 60 58 55 54 52 51 49 47 46 47 48 47 46 47 48 49 52 56 62 64 66 67 69 71 71 71 71 70 68 67 67 66 66 65 65 69 72 72 71 69 67 68 69 68 68 65 59 57 54 48 46 49 46 41 38 34 31 29 28 26 23 21 20 20 19 17 14 15 14 12 13 13 11 9 6 3 1
71 71 70 69 68 67 65 63 61 60 59 60 59 57 56 54 53 51 49 48 48 49 49 48 49 49 50 52 54 59 63 65 66 68 71 72 72 72 72 70 69 69 68 68 67 66 69 74 75 72 69 68 68 69 69 70 68 63 60 56 49 46 47 45 43 40 38 36 30 27 26 24 24 22 21 20 18 17 17 15 12 14 15 14 12 9 6 3
75 75 74 72 70 68 65 61 58 57 57 58 58 58 57 55 54 53 52 51 50 50 50 50 51 51 51 52 53 57 62 66 68 69 72 74 74 74 74 73 72 70 70 70 69 67 69 74 76 73 70 69 69 69 71 72 71 68 63 59 53 48 44 43 46 43 40 41 33 27 27 27 28 26 24 24 22 22 21 17 13 13 15 15 14 12 9 6
79 78 77 73 70 65 60 57 54 53 54 55 56 57 57 56 55 54 54 53 51 51 51 52 52 51 51 52 53 55 59 66 70 69 71 75 75 76 77 76 74 73 71 71 71 70 69 72 75 75 73 74 73 72 72 72 72 70 66 63 57 53 45 40 46 45 40 43 38 33 33 30 29 28 26 26 25 24 23 19 14 12 14 16 16 14 12 10
82 80 76 70 65 59 54 51 49 49 50 52 54 56 57 57 56 56 55 53 53 52 52 53 53 52 52 53 53 54 57 65 70 70 72 76 77 78 78 77 76 74 73 73 73 72 70 70 75 79 78 78 77 74 74 74 74 72 69 67 60 56 50 41 48 49 42 44 44 41 40 34 31 30 28 27 25 23 22 20 17 15 14 16 17 16 14 12
82 77 70 63 57 52 48 46 44 45 47 49 52 54 56 56 57 57 56 55 54 53 54 54 53 54 54 54 52 53 57 64 70 73 74 76 78 79 79 79 78 77 76 75 74 73 71 70 74 81 81 80 79 77 76 76 76 74 72 70 64 59 55 48 51 54 47 46 47 46 46 39 33 33 29 25 24 23 23 23 21 17 13 13 16 18 16 14
78 69 62 55 50 46 43 41 40 41 43 46 49 52 54 56 57 57 57 56 55 55 55 55 54 54 54 54 54 56 60 64 70 75 77 78 80 81 81 80 80 80 78 76 74 73 73 72 75 81 83 82 80 79 78 77 78 76 72 71 67 63 60 55 54 55 51 50 50 49 48 43 38 37 32 26 23 21 23 26 25 19 14 13 16 18 18 14
69 61 54 49 45 42 39 37 36 37 39 42 45 48 52 54 55 56 57 57 56 56 56 56 55 55 55 56 57 61 63 64 68 75 78 79 80 81 82 82 82 82 80 78 76 75 75 76 76 80 84 84 83 82 81 79 79 76 74 72 70 67 65 61 57 57 55 53 54 52 48 44 42 41 37 32 26 22 23 26 26 22 18 16 17 18 17 15
62 54 49 44 40 37 35 33 33 34 35 38 41 45 48 50 53 55 56 56 56 56 56 56 56 55 55 56 58 61 63 64 67 73 79 80 81 82 83 84 84 84 83 81 79 77 77 79 78 79 83 86 87 85 82 81 79 78 77 76 74 71 68 63 59 59 58 54 55 55 50 45 42 41 39 35 29 27 28 28 27 25 23 21 20 20 17 14
56 49 43 38 35 33 31 30 30 30 32 34 37 40 43 46 49 52 54 54 55 56 56 56 56 55 55 57 59 62 64 65 66 71 78 81 81 83 84 85 86 85 85 84 82 80 79 80 80 79 81 86 89 87 83 82 81 80 80 78 76 74 70 65 60 61 62 58 55 55 53 49 44 41 39 35 30 32 33 31 29 28 26 24 24 22 18 14
51 44 38 33 30 29 28 26 26 27 29 31 34 36 39 42 45 48 51 52 53 54 55 55 55 56 57 58 60 64 66 66 66 70 77 81 82 84 85 85 87 87 87 86 84 82 81 82 82 80 80 84 88 88 86 86 85 83 82 80 78 76 73 69 63 62 63 62 58 56 54 53 50 46 42 37 35 36 36 34 32 30 28 27 27 24 20 16
46 39 34 29 26 25 24 23 24 25 27 29 32 34 37 39 42 45 47 49 50 52 54 55 55 57 57 57 61 66 66 64 65 70 75 80 84 85 86 87 88 89 88 88 86 85 84 83 82 82 82 84 88 91 90 88 86 85 83 81 80 79 77 74 69 65 65 63 61 60 57 55 55 52 46 43 42 40 39 37 34 31 30 30 29 26 23 21
42 35 30 26 23 22 21 21 22 23 25 27 29 31 34 36 38 41 43 46 48 50 53 55 55 57 58 59 64 66 65 64 66 69 73 78 83 86 87 88 89 90 90 90 89 87 86 85 84 85 86 86 88 91 91 88 87 87 85 83 82 82 81 80 75 70 68 66 65 64 61 56 56 56 52 49 47 44 40 38 35 33 32 31 30 28 26 25
38 32 27 24 21 20 19 19 20 21 23 24 26 28 30 32 35 37 40 43 45 48 52 54 54 56 58 61 64 64 64 66 67 68 70 75 81 86 87 88 89 91 92 91 90 89 90 90 89 88 88 86 84 87 90 89 88 88 87 86 86 86 85 85 82 74 68 69 69 67 64 58 54 56 57 55 50 47 44 40 37 36 35 33 32 31 29 28
35 29 24 21 20 19 18 17 19 19 20 21 22 24 27 29 31 34 37 40 42 46 50 51 52 55 59 61 62 63 65 67 66 67 69 73 79 85 86 88 90 92 93 93 93 93 94 93 91 90 89 86 83 85 89 90 89 90 88 88 90 89 88 87 84 77 71 69 70 69 66 61 56 54 57 59 54 50 46 40 37 39 39 37 36 35 31 28
32 26 23 20 18 18 16 16 18 18 17 18 20 22 24 26 28 31 34 37 40 44 47 50 52 55 58 59 61 64 66 66 66 67 70 74 78 82 85 87 91 94 96 96 97 98 97 95 93 90 87 86 85 85 87 89 91 93 92 92 92 90 88 86 82 79 76 72 71 71 68 64 60 56 56 58 56 53 48 42 39 40 41 40 39 40 35 28
29 25 21 19 17 16 16 16 16 16 15 16 17 19 21 23 26 29 32 35 39 42 45 49 51 54 57 59 62 65 65 65 66 67 71 74 77 81 86 88 90 95 97 98 100 101 100 97 94 91 88 87 86 86 86 87 91 95 94 93 92 90 88 86 82 80 79 76 74 73 71 68 65 61 58 56 56 56 52 46 41 42 42 40 40 41 37 31
27 23 20 17 16 16 16 15 14 14 14 14 16 18 21 23 26 28 31 34 37 40 43 47 51 54 56 59 62 64 65 66 66 67 70 74 76 80 85 88 90 94 98 100 101 103 103 100 96 93 91 87 86 87 87 86 90 96 96 94 92 90 88 86 85 83 81 79 78 76 74 71 67 65 62 59 57 58 57 51 45 45 44 41 40 40 35 32
26 21 18 16 14 16 17 15 13 13 13 14 16 19 22 24 26 28 31 33 36 38 41 46 50 53 55 58 61 62 64 66 67 68 70 73 76 80 84 87 90 94 98 101 103 105 105 102 99 97 94 89 87 88 88 87 90 96 97 96 93 90 89 88 87 87 85 83 83 81 76 72 69 66 63 60 59 59 61 59 52 48 47 43 40 38 33 32
24 19 15 13 14 17 17 14 12 12 13 15 17 20 23 24 25 27 29 31 34 38 41 45 49 52 55 57 58 60 62 64 65 68 71 73 76 80 85 90 93 97 100 102 104 105 104 103 101 99 96 92 91 91 89 88 91 94 95 96 96 93 91 91 91 91 90 88 88 84 77 72 71 68 63 61 63 63 63 63 60 53 51 48 44 42 39 36
22 17 13 13 16 18 17 13 12 13 13 16 19 21 24 24 24 25 26 28 31 35 39 44 47 50 53 54 57 60 62 63 65 69 73 75 78 82 88 92 97 101 102 102 102 102 103 104 103 101 98 96 96 95 92 92 92 93 93 95 96 94 93 93 94 94 92 91 89 84 80 76 73 72 69 64 64 67 66 65 63 59 57 56 51 48 43 37
21 16 13 15 18 18 16 14 14 14 15 18 22 24 26 26 25 24 24 25 28 31 35 41 45 48 51 54 57 60 63 66 69 73 75 77 80 83 86 88 92 96 98 99 101 101 102 104 104 102 99 99 100 98 94 93 93 92 92 92 92 93 93 93 93 93 92 92 88 83 81 81 77 73 73 70 66 68 70 67 64 63 63 61 58 52 44 37
20 15 14 16 17 16 14 14 15 15 16 20 24 26 27 27 25 24 22 23 24 27 32 38 42 46 51 54 58 61 65 68 72 76 78 79 82 83 82 82 82 85 90 95 99 102 104 106 106 103 102 103 103 99 94 93 93 90 89 89 88 89 92 92 93 93 92 92 89 83 80 82 81 76 72 72 71 69 71 70 67 66 68 67 63 58 49 43
19 15 15 16 17 15 14 14 15 15 17 21 24 26 26 26 24 22 21 20 21 24 29 33 38 43 48 54 58 63 67 70 75 79 81 81 81 80 78 78 78 80 86 92 98 103 106 108 108 106 106 106 103 98 95 95 95 92 89 89 87 87 88 90 93 95 94 94 92 88 84 83 84 80 72 71 74 74 72 72 72 71 71 70 67 61 53 48
19 16 16 16 16 16 15 15 15 16 18 22 24 26 26 25 23 20 18 17 19 21 25 30 33 38 44 51 57 63 68 72 77 80 81 80 79 77 75 75 76 80 87 93 99 104 106 108 108 108 108 107 103 99 98 99 98 95 93 92 90 90 92 91 93 96 97 98 97 93 90 86 83 82 77 71 73 77 76 74 76 76 75 72 68 63 57 52
19 17 16 16 15 16 16 16 16 16 19 23 25 27 28 26 22 18 16 15 16 19 22 25 28 34 41 48 54 60 65 71 76 78 79 79 78 78 76 75 77 81 86 92 97 102 106 107 107 107 107 107 105 103 102 102 99 95 93 92 93 95 97 97 98 100 101 102 100 94 92 90 85 83 81 75 73 79 81 79 79 79 78 76 72 68 64 59
20 17 16 16 15 16 16 17 17 18 21 24 27 29 29 27 23 18 14 12 12 14 17 20 24 31 38 45 51 55 59 65 71 75 77 79 78 78 77 78 80 82 85 89 93 98 103 105 104 104 105 105 105 104 103 102 98 94 92 93 95 98 98 98 100 103 105 104 100 96 93 92 90 87 85 81 79 81 84 84 84 82 80 79 76 74 71 68
21 18 16 16 16 16 17 18 19 21 23 25 28 30 31 28 24 19 15 12 10 10 13 18 22 28 34 40 45 49 52 58 66 72 76 79 79 78 79 80 83 85 87 88 91 96 101 102 102 103 102 103 104 104 103 102 98 96 95 94 96 99 97 96 97 101 104 103 100 99 96 93 92 91 90 88 87 87 86 86 86 85 82 81 79 76 74 72
22 19 17 16 16 17 18 19 20 22 24 26 29 30 32 31 26 21 16 12 10 8 11 15 20 25 30 35 40 44 48 53 59 67 73 79 80 80 81 83 84 86 88 88 90 94 98 99 101 102 101 101 103 104 105 104 102 100 98 98 99 100 97 96 96 98 101 101 100 100 98 95 94 93 92 92 92 92 89 86 87 88 85 82 81 79 76 73
22 19 18 17 16 17 18 19 22 23 25 27 30 31 33 32 29 23 18 14 10 8 8 11 16 21 26 31 36 41 46 50 54 60 67 75 80 83 83 84 85 87 89 89 89 91 94 97 99 101 101 99 100 103 106 107 107 105 103 103 104 103 100 98 98 99 99 98 99 100 99 97 96 95 96 96 95 93 90 87 87 89 88 84 82 81 79 76
22 20 19 18 16 17 18 19 22 24 25 27 30 33 34 34 31 26 20 15 12 8 7 9 13 17 22 28 32 37 42 47 51 55 61 69 77 82 84 85 86 88 90 90 89 89 91 95 98 102 102 100 100 102 104 107 109 107 106 106 105 102 99 97 98 101 100 97 96 98 98 98 98 98 98 97 94 92 91 89 87 87 88 87 84 82 81 79
23 21 20 18 16 17 18 18 21 24 25 26 29 33 36 36 33 28 22 17 13 10 8 8 10 14 19 24 29 34 38 41 45 50 56 63 70 78 83 86 87 89 90 90 89 88 89 92 96 100 101 101 102 103 104 107 110 109 107 108 107 103 99 97 97 99 99 97 95 95 96 96 97 98 98 96 94 92 91 90 90 88 88 88 87 84 83 81
22 21 20 18 16 17 17 17 20 23 24 25 28 32 35 37 36 31 25 19 15 12 9 8 10 12 15 21 27 31 33 36 39 44 50 55 63 70 78 83 87 89 89 89 89 89 90 91 94 97 100 101 101 103 105 108 111 111 111 112 109 104 101 99 99 100 99 98 97 96 95 95 95 96 96 96 95 94 92 91 91 90 89 90 90 88 85 83
22 20 20 17 16 17 17 17 19 22 23 24 26 30 33 36 37 34 28 22 16 13 10 8 9 10 12 18 24 28 31 34 36 40 46 51 56 62 69 77 85 90 91 91 90 90 91 91 91 94 98 99 97 99 102 106 109 111 112 111 108 104 103 101 102 102 100 99 99 97 96 96 95 94 94 94 95 95 94 93 93 91 90 90 91 90 88 86
22 20 19 17 15 16 17 16 18 21 22 23 25 28 31 34 36 34 30 25 19 14 11 9 8 9 11 16 22 25 29 33 36 40 44 47 52 57 63 71 81 88 91 92 92 92 92 91 90 91 95 96 95 97 101 104 107 110 111 110 107 106 107 106 105 104 101 99 100 98 97 97 96 95 94 95 94 94 94 95 95 94 92 92 92 90 88 87
23 20 19 17 14 15 16 15 16 19 22 22 23 26 29 32 35 34 31 27 22 17 12 10 8 8 11 15 19 23 26 32 37 39 41 43 48 53 59 66 74 81 87 91 93 93 92 91 90 91 92 94 95 98 103 106 108 109 109 110 109 108 109 109 109 108 104 102 101 100 98 98 97 96 96 96 95 94 94 95 95 95 94 95 94 92 88 87
Wind_Direction
293 291 289 286 284 282 280 277 273 268 262 259 256 254 251 246 241 237 233 230 227 225 225 224 223 223 222 221 219 217 215 214 213 211 210 208 208 208 208 207 205 204 205 205 204 201 199 199 197 195 193 193 192 191 191 192 190 183 178 170 173 180 193 193 183 188 187 178 167 167 210 212 105 36 39 39 38 45 51 49 43 43 40 38 40 47 54 58
290 289 287 284 282 279 277 276 275 272 268 264 259 255 252 249 245 240 236 233 229 226 224 224 223 222 222 221 220 218 216 214 213 211 210 208 206 208 209 208 205 204 205 205 205 202 200 199 198 196 194 194 193 191 191 194 192 184 180 179 177 182 195 194 182 184 190 188 182 183 193 178 110 60 48 46 44 45 53 52 47 46 43 39 38 43 52 57
288 287 286 284 282 280 277 275 272 270 268 266 262 258 255 251 248 244 240 236 232 229 225 223 223 222 221 221 220 219 217 215 213 212 210 208 206 207 209 208 206 204 204 205 205 203 201 199 199 197 195 195 194 191 190 193 190 182 181 188 181 181 194 195 191 190 197 203 202 200 187 164 145 114 79 54 52 51 55 53 49 48 46 42 39 41 48 56
288 286 285 284 283 281 279 276 274 271 268 265 262 260 257 253 250 247 243 239 235 231 228 225 223 222 221 220 220 220 218 216 214 212 210 208 207 207 208 208 206 204 204 205 205 204 202 201 199 197 196 196 195 192 192 191 186 176 171 189 186 184 194 196 197 196 201 206 208 209 188 161 161 148 128 50 59 58 55 54 51 50 47 44 41 41 45 52
289 287 285 284 283 283 282 280 277 274 270 266 262 259 256 254 252 248 245 241 237 233 230 227 224 222 221 220 220 220 219 217 215 212 210 209 208 206 207 208 207 204 204 205 205 204 204 202 199 198 197 196 195 194 194 191 184 177 173 183 186 186 196 199 200 199 201 208 211 209 187 159 165 165 165 111 87 77 54 53 51 51 50 46 43 42 43 47
294 290 286 284 282 281 281 281 279 277 274 270 266 261 257 253 251 248 246 243 239 235 232 229 226 223 222 220 220 220 219 219 217 212 210 209 208 207 207 208 207 205 204 204 205 204 204 202 200 198 197 196 195 195 196 191 183 181 175 170 178 186 192 198 200 203 204 213 218 208 184 168 178 182 177 148 126 113 59 51 50 52 51 49 45 43 43 45
296 292 288 285 282 279 277 277 277 277 276 274 271 266 261 256 251 247 245 243 241 237 233 230 228 225 222 221 220 219 219 220 218 214 211 209 208 208 207 207 208 207 204 204 205 204 204 203 200 198 198 197 195 196 197 192 184 181 171 160 171 177 173 196 201 201 206 214 217 205 185 178 181 183 179 162 151 142 70 46 47 51 52 51 47 45 44 44
298 294 290 287 283 280 277 275 273 273 273 273 272 269 266 261 255 249 244 242 241 238 235 231 228 226 224 222 220 219 219 221 219 214 212 209 207 207 208 207 207 208 206 204 205 205 204 203 200 198 198 198 197 198 197 192 187 180 172 164 170 169 166 192 200 200 206 210 209 203 191 183 181 185 185 169 165 186 234 40 47 49 50 52 49 48 46 44
304 299 294 290 286 282 279 276 273 271 270 269 268 268 266 264 260 254 247 242 239 237 236 233 229 226 225 223 221 219 218 221 220 215 214 210 207 207 207 207 207 207 207 205 204 205 205 203 200 198 198 199 199 199 197 194 190 183 179 176 174 170 171 184 193 196 203 203 198 199 196 190 191 196 193 180 184 221 241 341 51 48 47 50 50 51 48 47
310 306 301 296 290 285 281 278 275 272 269 267 266 264 263 263 261 258 253 246 239 236 235 233 230 226 225 224 222 220 219 221 221 216 215 212 208 207 207 206 206 207 207 206 204 204 205 204 200 198 199 200 200 200 198 197 192 186 185 184 177 172 176 183 183 181 189 197 194 198 202 198 202 206 204 195 199 218 229 233 63 54 47 48 49 52 51 49
309 306 303 300 296 290 285 280 277 273 270 267 265 263 261 260 259 257 255 250 243 237 234 233 231 228 225 223 222 221 219 221 220 216 216 214 209 208 207 206 206 206 206 206 205 204 205 204 201 199 200 200 200 201 201 200 195 189 191 192 183 180 184 184 181 178 185 195 195 197 203 205 207 213 218 211 209 219 216 212 139 54 46 48 46 50 53 51
305 303 301 299 296 293 289 285 281 276 271 267 265 263 262 259 257 255 254 252 247 241 234 231 231 228 225 223 221 221 221 221 220 216 217 216 211 208 208 206 206 206 206 206 205 204 204 204 202 200 201 201 201 201 202 202 197 191 194 199 196 193 190 183 183 186 185 186 189 192 199 208 206 200 212 215 213 215 198 192 202 356 34 51 44 46 52 53
302 300 298 295 293 291 290 288 285 280 274 268 265 262 260 259 257 254 252 250 249 244 238 232 230 228 226 223 221 221 221 222 220 216 217 218 213 210 208 207 206 205 205 206 205 204 203 203 202 200 202 202 202 202 203 202 197 192 190 197 202 200 193 188 188 185 179 178 186 196 198 206 204 194 205 214 212 213 196 192 213 235 233 85 52 44 48 52
301 299 297 295 292 289 287 286 284 282 277 271 265 261 258 257 255 253 251 248 247 245 241 235 230 228 227 224 222 221 221 222 220 215 217 218 215 212 210 207 207 206 205 206 205 204 203 203 202 201 203 203 202 202 203 201 198 195 193 195 202 202 196 194 191 181 173 169 180 202 206 208 211 207 211 214 213 220 221 221 222 216 215 203 112 49 46 48
301 299 297 295 292 289 286 283 281 280 278 274 268 262 257 254 253 252 250 247 245 244 242 238 232 228 226 225 223 221 220 222 220 216 216 218 216 214 211 208 207 206 205 205 205 204 202 203 203 202 204 204 202 202 202 201 199 198 198 197 202 205 201 198 192 180 171 167 175 193 204 208 215 212 210 215 223 234 234 230 224 215 208 201 191 116 55 41
303 301 299 297 294 291 287 284 280 277 275 273 268 263 257 254 251 249 248 246 243 242 241 239 234 229 226 225 224 221 219 220 219 216 216 217 217 215 213 209 207 207 206 205 205 204 203 203 203 203 204 204 203 202 202 202 200 200 199 198 201 206 205 202 194 183 175 175 181 189 196 203 213 213 211 221 232 238 234 226 221 218 208 199 194 181 111 34
306 304 302 300 297 294 289 285 280 276 272 269 266 262 257 253 250 248 246 244 241 239 239 238 236 231 227 225 224 222 220 219 218 216 216 216 216 216 214 211 207 207 206 205 204 204 203 203 204 204 204 203 203 203 203 203 202 201 200 198 200 203 205 203 196 189 185 183 185 191 195 199 208 213 214 222 227 228 228 222 219 218 209 200 196 196 203 334
308 306 304 302 299 295 291 286 280 274 269 265 261 258 255 251 249 247 244 242 240 238 237 237 236 233 228 226 225 222 220 220 218 216 216 216 216 216 216 213 209 207 206 205 204 204 204 203 204 205 204 204 205 204 203 204 204 202 201 200 201 202 203 203 197 192 194 192 188 192 198 200 203 206 208 214 220 221 221 220 222 222 216 208 202 205 221 249
310 308 306 304 301 297 292 286 279 272 266 261 257 255 252 249 247 245 243 241 239 237 236 236 236 233 230 227 224 221 220 219 218 215 215 216 215 215 216 214 211 208 206 206 205 204 204 204 204 204 205 205 206 206 205 206 205 203 202 201 203 202 202 204 199 192 195 196 192 195 203 206 201 202 207 211 221 223 218 221 232 235 229 222 212 210 223 238
312 310 308 305 301 297 291 284 277 269 262 257 253 251 249 246 244 242 241 240 238 236 235 236 235 233 232 228 224 222 219 219 219 215 214 215 215 214 215 215 213 210 207 206 205 204 204 205 204 204 205 205 207 207 206 207 207 205 203 203 204 203 200 203 201 196 195 194 192 195 203 209 205 205 212 216 220 220 218 223 232 239 242 241 228 219 223 233
313 311 308 305 300 295 289 282 274 266 259 253 249 247 245 244 242 240 239 238 237 235 235 235 234 233 232 228 223 221 219 219 219 216 214 214 214 214 214 215 214 212 208 207 206 205 205 204 204 204 205 206 206 206 206 207 207 207 206 205 205 203 200 202 203 201 199 195 194 195 198 206 209 205 210 216 216 217 222 229 232 236 246 253 240 226 225 229
314 312 308 304 299 294 288 280 272 264 256 251 247 244 242 241 240 239 238 237 235 235 234 234 233 232 231 228 222 220 219 218 217 216 214 213 213 214 214 214 214 213 211 208 206 205 205 204 205 205 205 206 206 206 206 207 208 208 207 207 207 205 202 204 205 203 203 201 199 199 199 204 209 207 209 214 217 223 231 234 231 231 239 248 240 228 223 222
316 312 308 303 298 292 286 279 271 262 255 249 245 242 240 239 239 237 237 236 235 234 234 233 232 231 230 227 222 219 218 217 216 215 214 212 212 213 213 213 213 214 213 209 206 205 205 205 206 206 205 206 207 206 206 207 208 208 208 208 208 207 205 207 206 202 204 206 204 203 202 203 208 209 206 207 216 227 235 233 228 223 226 236 241 235 219 211
316 312 307 301 296 291 285 278 270 262 255 249 245 242 240 238 237 237 236 236 235 234 234 233 231 230 229 226 222 220 218 216 214 215 215 213 212 212 212 212 212 213 213 211 207 205 206 206 206 206 205 206 207 207 207 207 208 208 209 210 209 209 208 208 207 204 205 207 207 206 205 203 204 206 205 206 213 217 219 226 225 221 224 229 238 236 219 209
316 311 306 300 295 289 284 277 269 261 254 249 245 242 240 238 237 236 236 235 235 235 234 233 231 229 228 227 224 222 219 217 214 214 214 213 212 211 212 211 211 212 213 212 209 206 206 207 207 207 206 206 207 207 206 208 209 208 210 210 210 210 210 209 208 207 207 208 209 208 206 204 203 207 209 210 215 213 211 222 228 227 228 226 229 233 224 218
317 312 306 299 293 288 282 275 267 261 255 250 246 242 240 238 237 236 236 235 235 235 234 233 231 228 227 225 223 221 219 216 214 213 214 213 212 211 211 211 211 211 212 212 211 208 207 207 208 207 206 207 208 207 206 208 209 209 210 211 211 211 210 209 209 207 207 210 210 209 209 207 204 208 211 210 216 215 213 225 233 229 226 222 224 228 229 229
318 313 306 299 293 288 282 274 266 260 254 250 245 242 239 238 237 236 236 235 235 235 234 233 230 228 226 223 223 222 219 215 213 213 213 212 212 212 211 211 211 211 211 212 211 210 208 208 208 208 207 208 208 207 206 208 209 209 210 212 213 212 211 209 209 208 208 209 209 210 210 207 204 208 209 211 220 221 221 231 235 227 220 216 217 221 229 232
319 315 308 300 295 290 283 274 266 259 253 249 246 242 240 238 237 236 235 235 235 234 233 232 229 227 225 222 222 222 219 216 214 213 212 211 212 211 211 210 210 211 211 211 211 211 210 209 208 208 208 208 208 207 206 207 209 210 210 212 213 213 213 211 211 211 210 209 210 213 213 209 206 208 209 212 220 224 225 231 230 221 213 211 213 217 225 229
322 317 310 303 298 292 283 275 267 260 254 250 247 245 242 240 238 236 235 234 233 234 233 231 228 226 223 222 221 220 218 216 214 214 213 211 211 212 211 210 210 210 210 210 210 211 211 210 209 209 209 209 208 207 207 207 209 210 210 212 214 214 214 213 212 212 212 210 211 215 216 213 210 210 210 212 218 221 223 226 224 215 209 208 212 216 222 227
324 319 313 307 301 292 284 276 268 262 257 254 251 248 245 242 239 236 235 234 232 232 232 230 227 226 223 222 222 220 218 217 214 213 213 211 211 212 212 211 210 210 210 209 209 210 212 211 210 209 209 209 208 208 208 207 209 211 211 212 214 215 215 215 213 211 212 211 211 215 216 214 213 212 211 212 215 218 220 222 221 214 208 205 210 218 222 225
326 322 316 309 301 292 285 277 271 267 262 258 254 250 246 243 240 238 236 234 232 231 231 229 227 226 224 223 221 220 218 216 214 214 213 211 211 212 212 211 210 210 209 209 208 209 211 212 211 210 209 208 208 209 208 207 209 211 211 212 214 215 216 216 213 210 212 212 212 215 216 214 215 214 213 215 216 217 217 216 216 215 210 207 212 220 223 224
328 323 317 311 302 295 290 282 276 273 267 262 256 252 250 247 244 241 238 236 234 232 231 229 226 225 224 223 221 220 217 214 214 214 213 210 210 211 211 211 211 210 209 208 208 209 211 212 212 211 210 208 208 210 208 207 209 211 211 213 214 215 216 217 215 213 214 214 212 215 215 214 216 216 215 217 218 218 215 211 213 215 213 213 216 221 224 226
330 325 320 312 305 301 296 288 283 278 271 266 262 258 255 251 247 243 241 238 236 233 231 230 227 225 224 222 221 220 217 215 215 215 213 211 210 210 210 210 210 210 209 208 209 209 210 211 211 211 210 209 209 211 209 207 210 212 212 213 214 215 216 217 216 215 217 216 215 216 216 215 217 217 218 218 218 217 214 210 213 216 214 212 214 219 223 223
332 328 323 315 310 306 299 293 289 283 276 271 268 263 259 255 252 248 245 242 239 236 233 231 229 226 224 223 221 219 217 215 215 215 214 212 210 210 211 210 210 211 209 208 209 210 210 209 210 211 210 209 210 211 210 208 210 212 212 213 214 214 216 217 217 216 217 218 217 216 216 216 217 218 219 220 219 217 214 211 213 217 217 212 212 218 221 220
334 330 325 319 315 306 300 299 294 287 282 278 274 270 267 263 259 255 250 246 243 239 235 232 230 227 225 223 221 219 217 215 215 215 213 212 211 211 211 210 211 211 210 208 208 209 210 209 209 210 209 209 210 211 210 209 211 213 212 212 213 213 215 217 217 217 217 218 218 216 214 215 216 218 220 223 222 219 217 216 216 218 219 215 211 215 221 223
335 331 325 317 308 304 304 303 297 292 291 288 285 282 280 276 270 263 255 247 243 239 235 232 230 228 225 223 221 219 218 216 215 215 214 212 211 212 211 210 209 210 210 209 209 209 210 209 209 209 209 208 210 211 210 210 212 213 212 213 212 212 214 216 216 217 217 219 219 215 212 214 216 217 218 223 224 222 221 221 220 220 219 215 210 212 219 224
335 331 320 307 306 310 311 309 306 303 301 300 299 297 294 289 282 273 262 252 243 238 234 231 229 229 226 223 220 218 217 216 214 215 216 213 212 212 212 210 209 209 209 209 209 209 210 210 209 209 208 209 210 210 210 210 212 213 212 213 213 213 215 216 216 217 218 220 220 216 213 213 215 216 215 218 223 224 223 224 223 221 218 214 212 213 217 219
335 329 315 308 312 315 315 315 315 312 312 314 313 311 307 301 294 284 272 259 248 239 234 230 226 225 225 222 220 217 215 214 213 214 215 214 214 214 213 211 211 211 210 210 209 209 209 210 210 209 208 210 212 211 209 210 212 214 213 213 214 214 215 217 218 218 219 220 219 217 216 216 216 218 217 218 222 224 225 225 224 221 218 216 213 215 216 213
335 327 317 314 315 315 317 318 318 318 320 322 322 320 317 311 303 294 281 266 252 239 233 229 224 221 220 219 218 217 214 213 213 214 214 214 215 215 213 211 211 211 212 212 211 210 209 210 210 209 209 211 212 212 210 211 212 213 213 214 215 215 216 217 218 219 220 220 219 217 217 218 218 219 220 221 224 227 228 228 226 223 221 220 218 218 217 213
337 328 319 317 317 317 321 321 319 322 325 326 325 326 324 319 311 301 287 270 255 241 232 227 223 219 217 216 215 215 214 212 212 214 215 215 215 215 213 211 209 209 211 212 212 210 210 210 209 208 208 210 212 211 211 212 212 212 212 213 215 215 216 217 218 219 219 219 219 217 217 218 218 218 219 221 224 227 228 229 228 226 223 222 223 221 217 214
339 332 322 318 318 321 324 324 322 327 330 330 331 333 332 328 320 308 291 272 255 241 232 225 220 217 216 215 214 213 213 212 212 213 215 215 215 214 213 212 210 210 211 211 212 211 209 210 209 208 208 209 211 211 211 213 213 212 212 212 213 215 215 216 217 218 219 218 217 216 216 217 218 217 217 218 220 222 225 227 228 228 226 224 223 220 216 214
339 334 325 318 318 321 324 325 327 332 335 337 340 342 342 337 329 317 300 278 257 243 234 226 219 214 213 214 214 213 212 213 214 214 214 215 215 213 211 210 211 212 213 213 213 212 210 210 209 208 208 209 210 211 211 213 214 214 214 213 214 215 215 215 215 216 218 217 216 216 216 216 218 218 217 218 219 220 222 225 227 227 227 226 225 223 221 221
336 332 324 317 317 322 326 328 331 338 341 344 348 350 349 346 339 330 314 291 267 249 238 228 219 215 213 213 214 213 212 213 215 215 214 214 215 214 211 209 210 212 214 214 215 213 212 210 209 208 209 209 210 211 212 213 215 215 215 215 216 217 217 217 217 217 217 217 215 215 216 217 218 219 218 219 221 222 222 224 226 227 227 227 227 227 228 228
336 330 323 317 319 326 330 332 336 343 345 347 352 354 355 354 349 341 329 310 285 257 240 229 220 216 215 215 214 212 211 212 214 215 215 214 214 213 211 210 210 211 213 214 214 214 212 211 209 208 209 209 210 211 212 213 214 215 216 216 217 219 218 218 219 220 219 218 216 215 216 217 218 220 220 220 222 223 223 225 226 227 227 227 228 229 230 230
336 330 323 320 324 329 332 335 340 345 347 349 353 357 360 0 357 351 342 328 308 276 250 237 226 219 216 216 214 211 209 210 213 214 214 214 214 212 211 210 210 212 213 214 215 214 212 211 210 209 208 209 210 212 212 212 213 214 215 217 218 218 218 218 220 222 221 219 218 217 216 217 218 219 221 222 223 224 224 226 228 228 228 227 228 229 231 231
336 330 325 325 327 328 332 336 340 345 347 349 354 359 2 4 2 359 351 340 325 302 270 249 235 224 218 216 214 211 209 209 210 212 213 213 214 213 211 210 210 212 214 215 215 214 212 211 211 209 208 208 210 212 213 212 213 214 215 217 218 218 218 218 219 221 221 219 219 219 218 218 219 219 221 223 224 225 225 227 229 230 230 229 229 230 231 232
334 330 327 327 326 327 331 335 340 345 347 349 354 359 2 5 6 4 358 349 339 322 287 260 244 231 222 218 216 214 212 210 210 210 211 211 213 213 212 210 210 211 214 215 215 215 212 211 211 210 208 207 208 211 212 213 214 215 215 217 219 219 219 219 220 221 220 218 219 220 220 220 220 221 222 223 225 225 226 227 229 231 231 230 230 231 232 233
333 329 328 327 323 323 329 333 338 344 346 349 355 359 2 4 6 7 5 358 348 334 306 275 256 240 227 220 217 215 214 213 212 211 211 210 211 212 212 211 211 212 214 215 215 215 214 212 211 210 209 208 208 210 211 212 213 215 216 217 218 219 220 220 222 223 222 219 218 219 220 221 222 222 223 224 225 225 226 227 229 231 232 231 230 230 231 233
331 328 327 325 320 320 326 332 336 342 345 348 355 359 1 2 4 6 7 5 356 344 324 289 261 249 235 226 222 218 213 212 213 213 212 211 210 211 212 212 212 212 214 216 216 216 215 213 212 211 210 210 209 210 211 212 212 214 216 217 217 218 219 221 222 222 222 221 220 219 219 220 221 223 224 225 225 225 225 226 228 230 231 232 231 230 230 232
329 325 324 325 320 317 324 330 333 340 345 347 354 359 1 2 2 4 6 6 3 353 338 306 270 254 241 233 230 223 214 211 212 213 213 212 210 210 210 211 212 212 214 215 216 217 217 215 212 211 212 211 210 211 213 214 214 214 216 217 217 218 219 221 223 223 222 222 221 220 220 220 220 221 223 225 226 226 225 226 226 228 230 232 232 231 230 231
326 322 321 323 317 314 321 328 332 338 343 346 353 359 1 2 2 2 2 4 5 1 349 327 287 256 239 233 232 227 218 213 212 213 213 212 210 209 209 211 212 212 213 215 216 217 218 216 213 212 212 212 210 211 214 215 215 215 216 217 217 218 219 220 222 223 223 223 223 222 222 222 221 221 222 223 225 225 226 226 226 227 229 231 232 232 230 230
324 319 317 319 315 312 318 326 331 337 342 346 352 357 360 1 1 1 360 0 2 2 356 343 314 267 243 234 231 228 222 218 217 215 213 212 211 209 209 210 211 212 213 214 216 217 218 217 215 214 213 212 212 212 213 215 215 215 216 216 216 218 220 221 222 222 222 222 224 223 223 223 223 222 223 224 224 225 226 226 227 227 228 230 232 232 231 230